Time,TemperatureF,DewpointF,PressureIn,WindDirection,WindDirectionDegrees,WindSpeedMPH,WindSpeedGustMPH,Humidity,HourlyPrecipIn,Conditions,Clouds,dailyrainin,SoftwareType,DateUTC
2013-05-22 00:00:00,68.5,63.1,29.98,SSE,149,1.0,5.0,83,0.00,CLR,,0.00,WeatherDisplay:10.37,2013-05-22 04:00:00,
2013-05-22 00:05:00,68.6,63.2,29.98,SE,144,1.0,4.0,83,0.00,CLR,,0.00,WeatherDisplay:10.37,2013-05-22 04:05:00,
2013-05-22 00:10:00,68.6,63.2,29.98,SE,132,1.0,3.0,83,0.00,CLR,,0.00,WeatherDisplay:10.37,2013-05-22 04:10:00,
2013-05-22 00:15:00,68.6,63.2,29.98,SE,128,0.0,1.0,83,0.00,CLR,,0.00,WeatherDisplay:10.37,2013-05-22 04:15:00,
2013-05-22 00:20:00,68.5,63.1,29.98,SE,135,0.0,1.0,83,0.00,CLR,,0.00,WeatherDisplay:10.37,2013-05-22 04:20:00,
2013-05-22 00:25:00,68.4,63.4,29.98,SE,136,0.0,1.0,84,0.00,CLR,,0.00,WeatherDisplay:10.37,2013-05-22 04:25:00,
2013-05-22 00:30:00,68.4,63.3,29.98,SE,129,1.0,3.0,84,0.00,CLR,,0.00,WeatherDisplay:10.37,2013-05-22 04:30:00,
2013-05-22 00:35:00,68.5,63.5,29.98,SE,128,1.0,3.0,84,0.00,CLR,,0.00,WeatherDisplay:10.37,2013-05-22 04:35:00,
2013-05-22 00:40:00,68.5,63.5,29.97,SE,128,0.0,2.0,84,0.00,CLR,,0.00,WeatherDisplay:10.37,2013-05-22 04:40:00,
2013-05-22 00:45:00,68.4,63.4,29.97,ESE,122,0.0,2.0,84,0.00,CLR,,0.00,WeatherDisplay:10.37,2013-05-22 04:45:00,
2013-05-22 00:50:00,68.2,63.5,29.97,East,81,0.0,1.0,85,0.00,CLR,,0.00,WeatherDisplay:10.37,2013-05-22 04:50:00,
2013-05-22 00:55:00,68.0,63.7,29.97,East,98,0.0,1.0,86,0.00,CLR,,0.00,WeatherDisplay:10.37,2013-05-22 04:55:00,
2013-05-22 01:00:00,67.8,63.5,29.97,ESE,109,0.0,1.0,86,0.00,CLR,,0.00,WeatherDisplay:10.37,2013-05-22 05:00:00,
2013-05-22 01:05:00,67.7,63.7,29.98,ESE,106,0.0,2.0,87,0.00,CLR,,0.00,WeatherDisplay:10.37,2013-05-22 05:05:00,
2013-05-22 01:10:00,67.6,63.6,29.97,ESE,104,0.0,1.0,87,0.00,CLR,,0.00,WeatherDisplay:10.37,2013-05-22 05:10:00,
2013-05-22 01:15:00,67.4,63.7,29.97,ESE,106,0.0,0.0,88,0.00,CLR,,0.00,WeatherDisplay:10.37,2013-05-22 05:15:00,
2013-05-22 01:20:00,67.3,63.9,29.97,ESE,110,0.0,0.0,89,0.00,CLR,,0.00,WeatherDisplay:10.37,2013-05-22 05:20:00,
2013-05-22 01:25:00,67.2,63.8,29.97,ESE,117,0.0,0.0,89,0.00,CLR,,0.00,WeatherDisplay:10.37,2013-05-22 05:25:00,
2013-05-22 01:30:00,67.0,63.6,29.97,SE,132,0.0,2.0,89,0.00,CLR,,0.00,WeatherDisplay:10.37,2013-05-22 05:30:00,
2013-05-22 01:35:00,67.0,63.6,29.97,SSW,193,1.0,2.0,89,0.00,CLR,,0.00,WeatherDisplay:10.37,2013-05-22 05:35:00,
2013-05-22 01:40:00,66.8,63.8,29.97,SW,223,0.0,1.0,90,0.00,CLR,,0.00,WeatherDisplay:10.37,2013-05-22 05:40:00,
2013-05-22 01:45:00,66.6,63.6,29.97,SW,224,0.0,0.0,90,0.00,CLR,,0.00,WeatherDisplay:10.37,2013-05-22 05:45:00,
2013-05-22 01:50:00,66.5,63.8,29.97,SW,215,0.0,1.0,91,0.00,CLR,,0.00,WeatherDisplay:10.37,2013-05-22 05:50:00,
2013-05-22 01:55:00,66.4,63.7,29.97,ESE,118,0.0,1.0,91,0.00,CLR,,0.00,WeatherDisplay:10.37,2013-05-22 05:55:00,
2013-05-22 02:00:00,66.3,63.6,29.97,SE,125,0.0,2.0,91,0.00,CLR,,0.00,WeatherDisplay:10.37,2013-05-22 06:00:00,
2013-05-22 02:05:00,66.2,63.5,29.97,SSE,150,0.0,0.0,91,0.00,CLR,,0.00,WeatherDisplay:10.37,2013-05-22 06:05:00,
2013-05-22 02:10:00,66.1,63.4,29.97,SSE,166,0.0,1.0,91,0.00,CLR,,0.00,WeatherDisplay:10.37,2013-05-22 06:10:00,
2013-05-22 02:15:00,66.1,63.4,29.97,SSE,166,0.0,0.0,91,0.00,CLR,,0.00,WeatherDisplay:10.37,2013-05-22 06:15:00,
2013-05-22 02:20:00,66.0,63.0,29.97,South,189,0.0,3.0,90,0.00,CLR,,0.00,WeatherDisplay:10.37,2013-05-22 06:20:00,
2013-05-22 02:25:00,66.0,63.3,29.97,SW,221,0.0,1.0,91,0.00,CLR,,0.00,WeatherDisplay:10.37,2013-05-22 06:25:00,
2013-05-22 02:30:00,65.8,63.1,29.96,SW,222,0.0,0.0,91,0.00,CLR,,0.00,WeatherDisplay:10.37,2013-05-22 06:30:00,
2013-05-22 02:35:00,65.7,63.0,29.96,SW,225,0.0,1.0,91,0.00,CLR,,0.00,WeatherDisplay:10.37,2013-05-22 06:35:00,
2013-05-22 02:40:00,65.6,62.9,29.96,SW,233,0.0,0.0,91,0.00,CLR,,0.00,WeatherDisplay:10.37,2013-05-22 06:40:00,
2013-05-22 02:45:00,65.4,63.0,29.96,SW,214,0.0,1.0,92,0.00,CLR,,0.00,WeatherDisplay:10.37,2013-05-22 06:45:00,
2013-05-22 02:50:00,65.2,62.8,29.95,South,174,0.0,0.0,92,0.00,CLR,,0.00,WeatherDisplay:10.37,2013-05-22 06:50:00,
2013-05-22 02:55:00,65.0,62.6,29.95,SSE,164,0.0,1.0,92,0.00,CLR,,0.00,WeatherDisplay:10.37,2013-05-22 06:55:00,
2013-05-22 03:00:00,64.9,62.8,29.95,SSE,153,0.0,1.0,93,0.00,CLR,,0.00,WeatherDisplay:10.37,2013-05-22 07:00:00,
2013-05-22 03:05:00,64.7,62.6,29.95,SSE,153,0.0,0.0,93,0.00,CLR,,0.00,WeatherDisplay:10.37,2013-05-22 07:05:00,
2013-05-22 03:10:00,64.7,62.6,29.95,SSE,156,0.0,0.0,93,0.00,CLR,,0.00,WeatherDisplay:10.37,2013-05-22 07:10:00,
2013-05-22 03:15:00,64.5,62.5,29.94,SSE,158,0.0,0.0,93,0.00,CLR,,0.00,WeatherDisplay:10.37,2013-05-22 07:15:00,
2013-05-22 03:20:00,64.5,62.4,29.95,SSE,158,0.0,0.0,93,0.00,CLR,,0.00,WeatherDisplay:10.37,2013-05-22 07:20:00,
2013-05-22 03:25:00,64.4,62.3,29.95,SSE,158,0.0,0.0,93,0.00,CLR,,0.00,WeatherDisplay:10.37,2013-05-22 07:25:00,
2013-05-22 03:30:00,64.2,62.2,29.94,SSE,158,0.0,0.0,93,0.00,CLR,,0.00,WeatherDisplay:10.37,2013-05-22 07:30:00,
2013-05-22 03:35:00,64.1,62.3,29.94,SSE,158,0.0,0.0,94,0.00,CLR,,0.00,WeatherDisplay:10.37,2013-05-22 07:35:00,
2013-05-22 03:40:00,63.9,62.1,29.94,SSE,158,0.0,0.0,94,0.00,CLR,,0.00,WeatherDisplay:10.37,2013-05-22 07:40:00,
2013-05-22 03:45:00,63.8,62.0,29.94,SSE,158,0.0,0.0,94,0.00,CLR,,0.00,WeatherDisplay:10.37,2013-05-22 07:45:00,
2013-05-22 03:50:00,63.7,62.2,29.93,SSE,158,0.0,0.0,95,0.00,CLR,,0.00,WeatherDisplay:10.37,2013-05-22 07:50:00,
2013-05-22 03:55:00,63.6,62.1,29.93,SSE,158,0.0,0.0,95,0.00,CLR,,0.00,WeatherDisplay:10.37,2013-05-22 07:55:00,
2013-05-22 04:00:00,63.5,62.0,29.93,SSE,158,0.0,0.0,95,0.00,CLR,,0.00,WeatherDisplay:10.37,2013-05-22 08:00:00,
2013-05-22 04:05:00,63.5,62.0,29.93,South,177,0.0,2.0,95,0.00,CLR,,0.00,WeatherDisplay:10.37,2013-05-22 08:05:00,
2013-05-22 04:10:00,63.5,62.0,29.92,SSW,194,0.0,3.0,95,0.00,CLR,,0.00,WeatherDisplay:10.37,2013-05-22 08:10:00,
2013-05-22 04:15:00,63.6,62.1,29.92,SSW,211,0.0,0.0,95,0.00,CLR,,0.00,WeatherDisplay:10.37,2013-05-22 08:15:00,
2013-05-22 04:20:00,63.5,62.0,29.93,SW,218,0.0,0.0,95,0.00,CLR,,0.00,WeatherDisplay:10.37,2013-05-22 08:20:00,
2013-05-22 04:25:00,63.4,61.9,29.93,SW,216,0.0,0.0,95,0.00,CLR,,0.00,WeatherDisplay:10.37,2013-05-22 08:25:00,
2013-05-22 04:30:00,63.3,61.8,29.93,SW,215,0.0,1.0,95,0.00,CLR,,0.00,WeatherDisplay:10.37,2013-05-22 08:30:00,
2013-05-22 04:35:00,63.3,61.8,29.93,SW,215,0.0,1.0,95,0.00,CLR,,0.00,WeatherDisplay:10.37,2013-05-22 08:35:00,
2013-05-22 04:40:00,63.2,61.8,29.93,SSW,204,0.0,1.0,95,0.00,CLR,,0.00,WeatherDisplay:10.37,2013-05-22 08:40:00,
2013-05-22 04:45:00,63.3,61.8,29.93,ESE,119,0.0,1.0,95,0.00,CLR,,0.00,WeatherDisplay:10.37,2013-05-22 08:45:00,
2013-05-22 04:50:00,63.3,61.9,29.92,South,183,0.0,2.0,95,0.00,CLR,,0.00,WeatherDisplay:10.37,2013-05-22 08:50:00,
2013-05-22 04:55:00,63.4,61.9,29.93,SSW,196,0.0,1.0,95,0.00,CLR,,0.00,WeatherDisplay:10.37,2013-05-22 08:55:00,
2013-05-22 05:00:00,63.4,61.9,29.93,SSW,203,0.0,1.0,95,0.00,CLR,,0.00,WeatherDisplay:10.37,2013-05-22 09:00:00,
2013-05-22 05:05:00,63.3,61.8,29.93,SW,219,0.0,1.0,95,0.00,CLR,,0.00,WeatherDisplay:10.37,2013-05-22 09:05:00,
2013-05-22 05:10:00,63.2,61.7,29.93,SW,219,0.0,1.0,95,0.00,CLR,,0.00,WeatherDisplay:10.37,2013-05-22 09:10:00,
2013-05-22 05:15:00,63.1,61.9,29.93,SSW,200,0.0,1.0,96,0.00,CLR,,0.00,WeatherDisplay:10.37,2013-05-22 09:15:00,
2013-05-22 05:20:00,63.0,61.8,29.93,SSE,162,0.0,1.0,96,0.00,CLR,,0.00,WeatherDisplay:10.37,2013-05-22 09:20:00,
2013-05-22 05:25:00,62.9,61.7,29.93,SSW,193,0.0,0.0,96,0.00,CLR,,0.00,WeatherDisplay:10.37,2013-05-22 09:25:00,
2013-05-22 05:30:00,62.8,61.6,29.93,SW,225,0.0,1.0,96,0.00,CLR,,0.00,WeatherDisplay:10.37,2013-05-22 09:30:00,
2013-05-22 05:35:00,62.8,61.6,29.93,SW,225,0.0,1.0,96,0.00,CLR,,0.00,WeatherDisplay:10.37,2013-05-22 09:35:00,
2013-05-22 05:40:00,62.7,61.5,29.93,SW,221,0.0,1.0,96,0.00,CLR,,0.00,WeatherDisplay:10.37,2013-05-22 09:40:00,
2013-05-22 05:45:00,62.7,61.8,29.93,SW,215,0.0,1.0,97,0.00,CLR,,0.00,WeatherDisplay:10.37,2013-05-22 09:45:00,
2013-05-22 05:50:00,62.7,61.8,29.93,SW,216,0.0,2.0,97,0.00,CLR,,0.00,WeatherDisplay:10.37,2013-05-22 09:50:00,
2013-05-22 05:55:00,62.6,61.7,29.94,SW,224,0.0,1.0,97,0.00,CLR,,0.00,WeatherDisplay:10.37,2013-05-22 09:55:00,
2013-05-22 06:00:00,62.7,61.8,29.94,SSW,197,0.0,3.0,97,0.00,CLR,,0.00,WeatherDisplay:10.37,2013-05-22 10:00:00,
2013-05-22 06:05:00,62.7,61.8,29.94,South,175,0.0,0.0,97,0.00,CLR,,0.00,WeatherDisplay:10.37,2013-05-22 10:05:00,
2013-05-22 06:10:00,62.7,61.9,29.94,SSE,161,0.0,1.0,97,0.00,CLR,,0.00,WeatherDisplay:10.37,2013-05-22 10:10:00,
2013-05-22 06:15:00,62.8,61.9,29.95,SSE,166,0.0,1.0,97,0.00,CLR,,0.00,WeatherDisplay:10.37,2013-05-22 10:15:00,
2013-05-22 06:20:00,62.8,61.9,29.95,SSE,160,0.0,1.0,97,0.00,CLR,,0.00,WeatherDisplay:10.37,2013-05-22 10:20:00,
2013-05-22 06:25:00,62.8,61.9,29.95,SE,126,0.0,1.0,97,0.00,CLR,,0.00,WeatherDisplay:10.37,2013-05-22 10:25:00,
2013-05-22 06:30:00,62.8,61.9,29.95,South,188,0.0,1.0,97,0.00,CLR,,0.00,WeatherDisplay:10.37,2013-05-22 10:30:00,
2013-05-22 06:35:00,62.7,61.8,29.96,SW,220,0.0,2.0,97,0.00,CLR,,0.00,WeatherDisplay:10.37,2013-05-22 10:35:00,
2013-05-22 06:40:00,62.7,61.8,29.96,SW,227,0.0,1.0,97,0.00,CLR,,0.00,WeatherDisplay:10.37,2013-05-22 10:40:00,
2013-05-22 06:45:00,62.7,61.8,29.96,WSW,241,0.0,1.0,97,0.00,CLR,,0.00,WeatherDisplay:10.37,2013-05-22 10:45:00,
2013-05-22 06:50:00,62.7,61.8,29.96,WSW,251,0.0,1.0,97,0.00,CLR,,0.00,WeatherDisplay:10.37,2013-05-22 10:50:00,
2013-05-22 06:55:00,62.7,61.8,29.96,WSW,241,0.0,1.0,97,0.00,CLR,,0.00,WeatherDisplay:10.37,2013-05-22 10:55:00,
2013-05-22 07:00:00,62.8,62.2,29.96,SW,232,0.0,1.0,98,0.00,CLR,,0.00,WeatherDisplay:10.37,2013-05-22 11:00:00,
2013-05-22 07:05:00,62.8,62.2,29.96,SW,231,0.0,1.0,98,0.00,CLR,,0.00,WeatherDisplay:10.37,2013-05-22 11:05:00,
2013-05-22 07:10:00,62.8,62.2,29.97,South,173,0.0,1.0,98,0.00,CLR,,0.00,WeatherDisplay:10.37,2013-05-22 11:10:00,
2013-05-22 07:15:00,62.9,62.3,29.97,East,96,0.0,1.0,98,0.00,CLR,,0.00,WeatherDisplay:10.37,2013-05-22 11:15:00,
2013-05-22 07:20:00,63.0,62.4,29.97,East,95,0.0,1.0,98,0.00,CLR,,0.00,WeatherDisplay:10.37,2013-05-22 11:20:00,
2013-05-22 07:25:00,63.0,62.4,29.97,ESE,121,0.0,1.0,98,0.00,CLR,,0.00,WeatherDisplay:10.37,2013-05-22 11:25:00,
2013-05-22 07:30:00,63.1,62.5,29.96,SW,223,0.0,1.0,98,0.00,CLR,,0.00,WeatherDisplay:10.37,2013-05-22 11:30:00,
2013-05-22 07:35:00,63.1,62.5,29.96,SSW,211,0.0,1.0,98,0.00,CLR,,0.00,WeatherDisplay:10.37,2013-05-22 11:35:00,
2013-05-22 07:40:00,63.2,62.6,29.96,SW,236,0.0,1.0,98,0.00,CLR,,0.00,WeatherDisplay:10.37,2013-05-22 11:40:00,
2013-05-22 07:45:00,63.3,62.7,29.97,SW,228,0.0,1.0,98,0.00,CLR,,0.00,WeatherDisplay:10.37,2013-05-22 11:45:00,
2013-05-22 07:50:00,63.5,62.6,29.96,SW,219,0.0,1.0,97,0.00,CLR,,0.00,WeatherDisplay:10.37,2013-05-22 11:50:00,
2013-05-22 07:55:00,63.8,62.9,29.97,SW,219,0.0,0.0,97,0.00,CLR,,0.00,WeatherDisplay:10.37,2013-05-22 11:55:00,
2013-05-22 08:00:00,64.0,63.1,29.97,SW,219,0.0,1.0,97,0.00,CLR,,0.00,WeatherDisplay:10.37,2013-05-22 12:00:00,
2013-05-22 08:05:00,64.2,63.3,29.97,SW,225,0.0,1.0,97,0.00,CLR,,0.00,WeatherDisplay:10.37,2013-05-22 12:05:00,
2013-05-22 08:10:00,64.4,63.5,29.97,WSW,248,0.0,1.0,97,0.00,CLR,,0.00,WeatherDisplay:10.37,2013-05-22 12:10:00,
2013-05-22 08:15:00,64.7,63.5,29.97,WSW,251,0.0,2.0,96,0.00,CLR,,0.00,WeatherDisplay:10.37,2013-05-22 12:15:00,
2013-05-22 08:20:00,65.0,63.8,29.98,WSW,246,0.0,1.0,96,0.00,CLR,,0.00,WeatherDisplay:10.37,2013-05-22 12:20:00,
2013-05-22 08:25:00,65.2,64.1,29.98,WSW,250,0.0,1.0,96,0.00,CLR,,0.00,WeatherDisplay:10.37,2013-05-22 12:25:00,
2013-05-22 08:30:00,65.5,64.0,29.98,NNW,334,0.0,1.0,95,0.00,CLR,,0.00,WeatherDisplay:10.37,2013-05-22 12:30:00,
2013-05-22 08:35:00,65.7,64.3,29.98,NNW,332,0.0,1.0,95,0.00,CLR,,0.00,WeatherDisplay:10.37,2013-05-22 12:35:00,
2013-05-22 08:40:00,66.0,64.2,29.98,WNW,302,0.0,0.0,94,0.00,CLR,,0.00,WeatherDisplay:10.37,2013-05-22 12:40:00,
2013-05-22 08:45:00,66.4,64.7,29.97,West,273,0.0,1.0,94,0.00,CLR,,0.00,WeatherDisplay:10.37,2013-05-22 12:45:00,
2013-05-22 08:50:00,67.0,64.9,29.97,West,269,0.0,1.0,93,0.00,CLR,,0.00,WeatherDisplay:10.37,2013-05-22 12:50:00,
2013-05-22 08:55:00,67.5,65.1,29.97,WSW,249,0.0,2.0,92,0.00,CLR,,0.00,WeatherDisplay:10.37,2013-05-22 12:55:00,
2013-05-22 09:00:00,67.5,64.1,29.97,WSW,252,1.0,3.0,89,0.00,CLR,,0.00,WeatherDisplay:10.37,2013-05-22 13:00:00,
2013-05-22 09:05:00,67.9,64.8,29.97,WSW,245,0.0,2.0,90,0.00,CLR,,0.00,WeatherDisplay:10.37,2013-05-22 13:05:00,
2013-05-22 09:10:00,68.3,65.0,29.97,SW,223,0.0,2.0,89,0.00,CLR,,0.00,WeatherDisplay:10.37,2013-05-22 13:10:00,
2013-05-22 09:15:00,68.8,65.1,29.97,SW,224,1.0,2.0,88,0.00,CLR,,0.00,WeatherDisplay:10.37,2013-05-22 13:15:00,
2013-05-22 09:20:00,69.3,65.2,29.97,SW,227,1.0,2.0,87,0.00,CLR,,0.00,WeatherDisplay:10.37,2013-05-22 13:20:00,
2013-05-22 09:25:00,69.7,65.7,29.97,WSW,237,0.0,2.0,87,0.00,CLR,,0.00,WeatherDisplay:10.37,2013-05-22 13:25:00,
2013-05-22 09:30:00,70.3,65.6,29.97,West,260,1.0,2.0,85,0.00,CLR,,0.00,WeatherDisplay:10.37,2013-05-22 13:30:00,
2013-05-22 09:35:00,71.1,66.3,29.97,WSW,257,1.0,2.0,85,0.00,CLR,,0.00,WeatherDisplay:10.37,2013-05-22 13:35:00,
2013-05-22 09:40:00,71.7,66.6,29.97,WSW,249,0.0,1.0,84,0.00,CLR,,0.00,WeatherDisplay:10.37,2013-05-22 13:40:00,
2013-05-22 09:45:00,72.0,66.6,29.97,SW,234,1.0,2.0,83,0.00,CLR,,0.00,WeatherDisplay:10.37,2013-05-22 13:45:00,
2013-05-22 09:50:00,72.1,66.6,29.97,SW,231,2.0,4.0,83,0.00,CLR,,0.00,WeatherDisplay:10.37,2013-05-22 13:50:00,
2013-05-22 09:55:00,72.3,66.5,29.97,WSW,238,1.0,3.0,82,0.00,CLR,,0.00,WeatherDisplay:10.37,2013-05-22 13:55:00,
2013-05-22 10:00:00,72.4,66.6,29.97,WSW,247,1.0,3.0,82,0.00,CLR,,0.00,WeatherDisplay:10.37,2013-05-22 14:00:00,
2013-05-22 10:05:00,73.0,66.8,29.97,SW,230,1.0,3.0,81,0.00,CLR,,0.00,WeatherDisplay:10.37,2013-05-22 14:05:00,
2013-05-22 10:10:00,73.3,67.2,29.97,South,183,1.0,4.0,81,0.00,CLR,,0.00,WeatherDisplay:10.37,2013-05-22 14:10:00,
2013-05-22 10:15:00,73.7,66.8,29.97,South,189,1.0,2.0,79,0.00,CLR,,0.00,WeatherDisplay:10.37,2013-05-22 14:15:00,
2013-05-22 10:20:00,74.2,66.9,29.96,SSW,201,2.0,4.0,78,0.00,CLR,,0.00,WeatherDisplay:10.37,2013-05-22 14:20:00,
2013-05-22 10:25:00,74.4,66.3,29.97,SSW,209,1.0,4.0,76,0.00,CLR,,0.00,WeatherDisplay:10.37,2013-05-22 14:25:00,
2013-05-22 10:30:00,74.8,67.1,29.97,SSW,210,1.0,2.0,77,0.00,CLR,,0.00,WeatherDisplay:10.37,2013-05-22 14:30:00,
2013-05-22 10:35:00,75.2,67.5,29.97,SSW,204,2.0,4.0,77,0.00,CLR,,0.00,WeatherDisplay:10.37,2013-05-22 14:35:00,
2013-05-22 10:40:00,75.4,67.3,29.97,SSW,207,1.0,3.0,76,0.00,CLR,,0.00,WeatherDisplay:10.37,2013-05-22 14:40:00,
2013-05-22 10:45:00,75.8,67.3,29.97,South,174,0.0,3.0,75,0.00,CLR,,0.00,WeatherDisplay:10.37,2013-05-22 14:45:00,
2013-05-22 10:50:00,76.0,67.8,29.97,SSE,160,1.0,3.0,76,0.00,CLR,,0.00,WeatherDisplay:10.37,2013-05-22 14:50:00,
2013-05-22 10:55:00,76.3,67.8,29.97,SSW,194,1.0,3.0,75,0.00,CLR,,0.00,WeatherDisplay:10.37,2013-05-22 14:55:00,
2013-05-22 11:00:00,76.3,67.8,29.97,SSE,153,1.0,3.0,75,0.00,CLR,,0.00,WeatherDisplay:10.37,2013-05-22 15:00:00,
2013-05-22 11:05:00,76.3,66.6,29.97,SSE,155,1.0,3.0,72,0.00,CLR,,0.00,WeatherDisplay:10.37,2013-05-22 15:05:00,
2013-05-22 11:10:00,76.4,67.1,29.97,SSW,212,2.0,5.0,73,0.00,CLR,,0.00,WeatherDisplay:10.37,2013-05-22 15:10:00,
2013-05-22 11:15:00,76.3,67.8,29.97,SW,224,0.0,4.0,75,0.00,CLR,,0.00,WeatherDisplay:10.37,2013-05-22 15:15:00,
2013-05-22 11:20:00,76.9,68.0,29.97,SW,215,1.0,4.0,74,0.00,CLR,,0.00,WeatherDisplay:10.37,2013-05-22 15:20:00,
2013-05-22 11:25:00,77.2,68.7,29.97,South,182,2.0,3.0,75,0.00,CLR,,0.00,WeatherDisplay:10.37,2013-05-22 15:25:00,
2013-05-22 11:30:00,77.6,69.8,29.97,SW,215,1.0,3.0,77,0.00,CLR,,0.00,WeatherDisplay:10.37,2013-05-22 15:30:00,
2013-05-22 11:35:00,77.6,68.2,29.97,SW,225,2.0,4.0,73,0.00,CLR,,0.00,WeatherDisplay:10.37,2013-05-22 15:35:00,
2013-05-22 11:40:00,77.3,69.2,29.97,South,171,1.0,4.0,76,0.00,CLR,,0.00,WeatherDisplay:10.37,2013-05-22 15:40:00,
2013-05-22 11:45:00,77.8,69.7,29.97,South,189,1.0,5.0,76,0.00,CLR,,0.00,WeatherDisplay:10.37,2013-05-22 15:45:00,
2013-05-22 11:50:00,78.0,69.0,29.97,SSW,192,1.0,4.0,74,0.00,CLR,,0.00,WeatherDisplay:10.37,2013-05-22 15:50:00,
2013-05-22 11:55:00,78.1,69.1,29.97,SW,222,1.0,2.0,74,0.00,CLR,,0.00,WeatherDisplay:10.37,2013-05-22 15:55:00,
2013-05-22 12:00:00,77.9,69.0,29.98,WSW,246,1.0,4.0,74,0.00,CLR,,0.00,WeatherDisplay:10.37,2013-05-22 16:00:00,
2013-05-22 12:05:00,77.5,69.3,29.97,SW,223,1.0,2.0,76,0.00,CLR,,0.00,WeatherDisplay:10.37,2013-05-22 16:05:00,
2013-05-22 12:10:00,77.1,68.2,29.97,SSE,161,1.0,4.0,74,0.00,CLR,,0.00,WeatherDisplay:10.37,2013-05-22 16:10:00,
2013-05-22 12:15:00,77.1,69.3,29.97,ESE,122,0.0,2.0,77,0.00,CLR,,0.00,WeatherDisplay:10.37,2013-05-22 16:15:00,
2013-05-22 12:20:00,77.1,68.6,29.97,ESE,112,1.0,2.0,75,0.00,CLR,,0.00,WeatherDisplay:10.37,2013-05-22 16:20:00,
2013-05-22 12:25:00,77.0,69.2,29.97,SSE,153,0.0,4.0,77,0.00,CLR,,0.00,WeatherDisplay:10.37,2013-05-22 16:25:00,
2013-05-22 12:30:00,76.9,69.1,29.97,SE,138,1.0,4.0,77,0.00,CLR,,0.00,WeatherDisplay:10.37,2013-05-22 16:30:00,
2013-05-22 12:35:00,76.9,69.5,29.96,ESE,113,2.0,4.0,78,0.00,CLR,,0.00,WeatherDisplay:10.37,2013-05-22 16:35:00,
2013-05-22 12:40:00,77.4,71.1,29.96,ESE,110,1.0,3.0,81,0.00,CLR,,0.00,WeatherDisplay:10.37,2013-05-22 16:40:00,
2013-05-22 12:45:00,78.2,70.0,29.96,SE,130,1.0,4.0,76,0.00,CLR,,0.00,WeatherDisplay:10.37,2013-05-22 16:45:00,
2013-05-22 12:50:00,78.5,69.1,29.96,South,181,2.0,7.0,73,0.00,CLR,,0.00,WeatherDisplay:10.37,2013-05-22 16:50:00,
2013-05-22 12:55:00,79.2,70.6,29.96,South,185,2.0,4.0,75,0.00,CLR,,0.00,WeatherDisplay:10.37,2013-05-22 16:55:00,
2013-05-22 13:00:00,79.5,70.5,29.96,SSW,206,0.0,5.0,74,0.00,CLR,,0.00,WeatherDisplay:10.37,2013-05-22 17:00:00,
2013-05-22 13:05:00,80.1,69.4,29.96,SSW,198,1.0,3.0,70,0.00,CLR,,0.00,WeatherDisplay:10.37,2013-05-22 17:05:00,
2013-05-22 13:10:00,80.0,70.5,29.95,ESE,119,0.0,2.0,73,0.00,CLR,,0.00,WeatherDisplay:10.37,2013-05-22 17:10:00,
2013-05-22 13:15:00,80.6,69.9,29.95,ESE,119,1.0,5.0,70,0.00,CLR,,0.00,WeatherDisplay:10.37,2013-05-22 17:15:00,
2013-05-22 13:20:00,81.0,70.3,29.94,ESE,114,2.0,4.0,70,0.00,CLR,,0.00,WeatherDisplay:10.37,2013-05-22 17:20:00,
2013-05-22 13:25:00,80.8,71.3,29.94,SE,136,1.0,4.0,73,0.00,CLR,,0.00,WeatherDisplay:10.37,2013-05-22 17:25:00,
2013-05-22 13:30:00,81.7,71.0,29.94,SSE,151,1.0,4.0,70,0.00,CLR,,0.00,WeatherDisplay:10.37,2013-05-22 17:30:00,
2013-05-22 13:35:00,81.9,69.9,29.94,SSE,168,2.0,6.0,67,0.00,CLR,,0.00,WeatherDisplay:10.37,2013-05-22 17:35:00,
2013-05-22 13:40:00,81.7,71.0,29.93,ESE,120,2.0,4.0,70,0.00,CLR,,0.00,WeatherDisplay:10.37,2013-05-22 17:40:00,
2013-05-22 13:45:00,82.2,71.0,29.93,SE,131,1.0,4.0,69,0.00,CLR,,0.00,WeatherDisplay:10.37,2013-05-22 17:45:00,
2013-05-22 13:50:00,81.9,69.8,29.93,SE,139,2.0,5.0,67,0.00,CLR,,0.00,WeatherDisplay:10.37,2013-05-22 17:50:00,
2013-05-22 13:55:00,82.3,71.5,29.93,SE,132,1.0,4.0,70,0.00,CLR,,0.00,WeatherDisplay:10.37,2013-05-22 17:55:00,
2013-05-22 14:00:00,82.2,71.4,29.93,SE,133,0.0,6.0,70,0.00,CLR,,0.00,WeatherDisplay:10.37,2013-05-22 18:00:00,
2013-05-22 14:05:00,81.9,71.6,29.93,SSE,157,1.0,4.0,71,0.00,CLR,,0.00,WeatherDisplay:10.37,2013-05-22 18:05:00,
2013-05-22 14:10:00,81.5,70.4,29.93,SSE,157,0.0,4.0,69,0.00,CLR,,0.00,WeatherDisplay:10.37,2013-05-22 18:10:00,
2013-05-22 14:15:00,81.0,69.9,29.93,SE,128,1.0,4.0,69,0.00,CLR,,0.00,WeatherDisplay:10.37,2013-05-22 18:15:00,
2013-05-22 14:20:00,81.0,71.5,29.93,SE,129,1.0,2.0,73,0.00,CLR,,0.00,WeatherDisplay:10.37,2013-05-22 18:20:00,
2013-05-22 14:25:00,80.6,69.5,29.93,SE,145,1.0,4.0,69,0.00,CLR,,0.00,WeatherDisplay:10.37,2013-05-22 18:25:00,
2013-05-22 14:30:00,79.8,69.1,29.93,SE,144,2.0,6.0,70,0.00,CLR,,0.00,WeatherDisplay:10.37,2013-05-22 18:30:00,
2013-05-22 14:35:00,79.9,70.1,29.93,SE,134,1.0,6.0,72,0.00,CLR,,0.00,WeatherDisplay:10.37,2013-05-22 18:35:00,
2013-05-22 14:40:00,79.9,70.1,29.93,SE,130,1.0,3.0,72,0.00,CLR,,0.00,WeatherDisplay:10.37,2013-05-22 18:40:00,
2013-05-22 14:45:00,80.8,71.0,29.92,SE,135,2.0,4.0,72,0.00,CLR,,0.00,WeatherDisplay:10.37,2013-05-22 18:45:00,
2013-05-22 14:50:00,81.6,69.6,29.92,SSE,165,2.0,5.0,67,0.00,CLR,,0.00,WeatherDisplay:10.37,2013-05-22 18:50:00,
2013-05-22 14:55:00,82.0,70.8,29.92,SSE,163,1.0,6.0,69,0.00,CLR,,0.00,WeatherDisplay:10.37,2013-05-22 18:55:00,
2013-05-22 15:00:00,82.4,71.2,29.92,SE,144,1.0,4.0,69,0.00,CLR,,0.00,WeatherDisplay:10.37,2013-05-22 19:00:00,
2013-05-22 15:10:00,81.9,70.3,29.91,ESE,122,1.0,3.0,68,0.00,CLR,,0.00,WeatherDisplay:10.37,2013-05-22 19:10:00,
2013-05-22 15:15:00,81.9,71.2,29.91,SE,132,1.0,3.0,70,0.00,CLR,,0.00,WeatherDisplay:10.37,2013-05-22 19:15:00,
2013-05-22 15:20:00,81.9,70.3,29.91,SE,135,2.0,5.0,68,0.00,CLR,,0.00,WeatherDisplay:10.37,2013-05-22 19:20:00,
2013-05-22 15:25:00,81.7,70.5,29.90,SE,133,2.0,4.0,69,0.00,CLR,,0.00,WeatherDisplay:10.37,2013-05-22 19:25:00,
2013-05-22 15:30:00,81.8,71.1,29.90,SE,132,2.0,6.0,70,0.00,CLR,,0.00,WeatherDisplay:10.37,2013-05-22 19:30:00,
2013-05-22 15:35:00,81.0,70.3,29.90,SE,131,2.0,5.0,70,0.00,CLR,,0.00,WeatherDisplay:10.37,2013-05-22 19:35:00,
2013-05-22 15:40:00,81.0,70.3,29.89,SE,127,2.0,7.0,70,0.00,CLR,,0.00,WeatherDisplay:10.37,2013-05-22 19:40:00,
2013-05-22 15:45:00,80.9,69.3,29.89,SE,126,2.0,4.0,68,0.00,CLR,,0.00,WeatherDisplay:10.37,2013-05-22 19:45:00,
2013-05-22 15:50:00,80.7,70.4,29.88,ESE,121,1.0,4.0,71,0.00,CLR,,0.00,WeatherDisplay:10.37,2013-05-22 19:50:00,
2013-05-22 15:55:00,80.4,70.1,29.88,SE,146,1.0,6.0,71,0.00,CLR,,0.00,WeatherDisplay:10.37,2013-05-22 19:55:00,
2013-05-22 16:00:00,80.7,69.6,29.88,SE,145,1.0,5.0,69,0.00,CLR,,0.00,WeatherDisplay:10.37,2013-05-22 20:00:00,
2013-05-22 16:05:00,80.5,69.8,29.88,SE,126,2.0,4.0,70,0.00,CLR,,0.00,WeatherDisplay:10.37,2013-05-22 20:05:00,
2013-05-22 16:10:00,80.3,70.1,29.88,SE,135,2.0,8.0,71,0.00,CLR,,0.00,WeatherDisplay:10.37,2013-05-22 20:10:00,
2013-05-22 16:15:00,79.4,69.2,29.87,SE,137,1.0,4.0,71,0.00,CLR,,0.00,WeatherDisplay:10.37,2013-05-22 20:15:00,
2013-05-22 16:20:00,78.8,69.0,29.87,SE,132,1.0,4.0,72,0.00,CLR,,0.00,WeatherDisplay:10.37,2013-05-22 20:20:00,
2013-05-22 16:25:00,78.5,69.1,29.87,SE,137,0.0,2.0,73,0.00,CLR,,0.00,WeatherDisplay:10.37,2013-05-22 20:25:00,
2013-05-22 16:30:00,78.0,69.4,29.87,SE,134,1.0,4.0,75,0.00,CLR,,0.00,WeatherDisplay:10.37,2013-05-22 20:30:00,
2013-05-22 16:35:00,78.1,69.9,29.87,SE,136,2.0,5.0,76,0.00,CLR,,0.00,WeatherDisplay:10.37,2013-05-22 20:35:00,
2013-05-22 16:40:00,78.0,69.8,29.86,SE,131,1.0,5.0,76,0.00,CLR,,0.00,WeatherDisplay:10.37,2013-05-22 20:40:00,
2013-05-22 16:45:00,77.9,69.3,29.85,ESE,118,1.0,4.0,75,0.00,CLR,,0.00,WeatherDisplay:10.37,2013-05-22 20:45:00,
2013-05-22 16:50:00,77.8,69.6,29.85,SE,132,1.0,5.0,76,0.00,CLR,,0.00,WeatherDisplay:10.37,2013-05-22 20:50:00,
2013-05-22 16:55:00,78.2,69.6,29.85,SE,143,1.0,4.0,75,0.00,CLR,,0.00,WeatherDisplay:10.37,2013-05-22 20:55:00,
2013-05-22 17:00:00,78.1,69.5,29.86,SE,135,1.0,5.0,75,0.00,CLR,,0.00,WeatherDisplay:10.37,2013-05-22 21:00:00,
2013-05-22 17:05:00,77.7,69.1,29.86,SSE,153,1.0,8.0,75,0.00,CLR,,0.00,WeatherDisplay:10.37,2013-05-22 21:05:00,
2013-05-22 17:10:00,77.8,69.6,29.85,SSE,150,1.0,3.0,76,0.00,CLR,,0.00,WeatherDisplay:10.37,2013-05-22 21:10:00,
2013-05-22 17:15:00,77.9,69.7,29.85,SE,138,1.0,4.0,76,0.00,CLR,,0.00,WeatherDisplay:10.37,2013-05-22 21:15:00,
2013-05-22 17:20:00,77.2,68.7,29.85,SE,133,1.0,5.0,75,0.00,CLR,,0.00,WeatherDisplay:10.37,2013-05-22 21:20:00,
2013-05-22 17:25:00,76.8,69.0,29.85,SE,127,1.0,5.0,77,0.00,CLR,,0.00,WeatherDisplay:10.37,2013-05-22 21:25:00,
2013-05-22 17:30:00,76.4,68.7,29.84,SE,136,3.0,12.0,77,0.00,CLR,,0.00,WeatherDisplay:10.37,2013-05-22 21:30:00,
2013-05-22 17:35:00,76.5,68.4,29.84,SE,126,1.0,5.0,76,0.00,CLR,,0.00,WeatherDisplay:10.37,2013-05-22 21:35:00,
2013-05-22 17:40:00,76.8,68.7,29.85,SE,140,2.0,5.0,76,0.00,CLR,,0.00,WeatherDisplay:10.37,2013-05-22 21:40:00,
2013-05-22 17:45:00,76.7,69.0,29.85,SSE,156,1.0,8.0,77,0.00,CLR,,0.00,WeatherDisplay:10.37,2013-05-22 21:45:00,
2013-05-22 17:50:00,76.5,68.7,29.84,SE,143,2.0,4.0,77,0.00,CLR,,0.00,WeatherDisplay:10.37,2013-05-22 21:50:00,
2013-05-22 17:55:00,76.6,68.1,29.85,SE,140,2.0,7.0,75,0.00,CLR,,0.00,WeatherDisplay:10.37,2013-05-22 21:55:00,
2013-05-22 18:00:00,76.4,69.0,29.85,SE,139,0.0,1.0,78,0.00,CLR,,0.00,WeatherDisplay:10.37,2013-05-22 22:00:00,
2013-05-22 18:05:00,75.9,67.8,29.85,SE,133,1.0,3.0,76,0.00,CLR,,0.00,WeatherDisplay:10.37,2013-05-22 22:05:00,
2013-05-22 18:10:00,75.7,68.0,29.85,SE,136,1.0,3.0,77,0.00,CLR,,0.00,WeatherDisplay:10.37,2013-05-22 22:10:00,
2013-05-22 18:15:00,75.1,68.5,29.86,ESE,121,1.0,3.0,80,0.00,CLR,,0.00,WeatherDisplay:10.37,2013-05-22 22:15:00,
2013-05-22 18:20:00,74.2,69.4,29.86,East,83,0.0,2.0,85,0.03,RA,,0.05,WeatherDisplay:10.37,2013-05-22 22:20:00,
2013-05-22 18:25:00,73.2,69.1,29.85,East,101,0.0,0.0,87,0.00,RA,,0.05,WeatherDisplay:10.37,2013-05-22 22:25:00,
2013-05-22 18:30:00,72.6,68.8,29.86,SE,127,0.0,2.0,88,0.00,RA,,0.06,WeatherDisplay:10.37,2013-05-22 22:30:00,
2013-05-22 18:35:00,72.5,69.4,29.86,ESE,105,0.0,0.0,90,0.00,RA,,0.06,WeatherDisplay:10.37,2013-05-22 22:35:00,
2013-05-22 18:40:00,72.4,69.3,29.87,East,99,0.0,1.0,90,0.00,CLR,,0.06,WeatherDisplay:10.37,2013-05-22 22:40:00,
2013-05-22 18:45:00,72.4,69.3,29.87,ESE,105,0.0,1.0,90,0.00,CLR,,0.06,WeatherDisplay:10.37,2013-05-22 22:45:00,
2013-05-22 18:50:00,72.3,69.6,29.87,East,83,0.0,1.0,91,0.00,CLR,,0.06,WeatherDisplay:10.37,2013-05-22 22:50:00,
2013-05-22 18:55:00,72.2,70.0,29.87,NNE,27,1.0,5.0,93,0.00,CLR,,0.06,WeatherDisplay:10.37,2013-05-22 22:55:00,
2013-05-22 19:00:00,71.6,68.9,29.87,SE,137,1.0,3.0,91,0.00,CLR,,0.06,WeatherDisplay:10.37,2013-05-22 23:00:00,
2013-05-22 19:05:00,71.1,68.7,29.87,SSW,203,0.0,3.0,92,0.00,CLR,,0.06,WeatherDisplay:10.37,2013-05-22 23:05:00,
2013-05-22 19:10:00,70.8,68.4,29.88,SW,221,0.0,2.0,92,0.00,CLR,,0.06,WeatherDisplay:10.37,2013-05-22 23:10:00,
2013-05-22 19:15:00,70.4,68.0,29.88,WSW,252,0.0,1.0,92,0.00,CLR,,0.06,WeatherDisplay:10.37,2013-05-22 23:15:00,
2013-05-22 19:20:00,70.1,68.0,29.88,NNE,12,0.0,2.0,93,0.00,CLR,,0.06,WeatherDisplay:10.37,2013-05-22 23:20:00,
2013-05-22 19:25:00,69.8,67.7,29.88,NNE,20,0.0,1.0,93,0.00,CLR,,0.06,WeatherDisplay:10.37,2013-05-22 23:25:00,
2013-05-22 19:30:00,69.5,67.4,29.89,NNW,333,0.0,6.0,93,0.00,CLR,,0.06,WeatherDisplay:10.37,2013-05-22 23:30:00,
2013-05-22 19:40:00,69.4,67.3,29.89,NW,306,0.0,1.0,93,0.00,CLR,,0.06,WeatherDisplay:10.37,2013-05-22 23:40:00,
2013-05-22 19:45:00,69.3,66.6,29.89,NW,306,0.0,3.0,91,0.00,CLR,,0.06,WeatherDisplay:10.37,2013-05-22 23:45:00,
2013-05-22 19:50:00,69.2,66.8,29.89,SE,127,0.0,1.0,92,0.00,CLR,,0.06,WeatherDisplay:10.37,2013-05-22 23:50:00,
2013-05-22 19:55:00,68.9,66.5,29.89,SE,131,0.0,1.0,92,0.00,CLR,,0.06,WeatherDisplay:10.37,2013-05-22 23:55:00,
2013-05-22 20:00:00,68.9,66.1,29.88,SE,136,1.0,2.0,91,0.00,CLR,,0.06,WeatherDisplay:10.37,2013-05-23 00:00:00,
2013-05-22 20:05:00,69.3,66.2,29.88,ESE,115,0.0,2.0,90,0.00,CLR,,0.06,WeatherDisplay:10.37,2013-05-23 00:05:00,
2013-05-22 20:10:00,69.6,65.9,29.88,ESE,117,1.0,2.0,88,0.00,CLR,,0.06,WeatherDisplay:10.37,2013-05-23 00:10:00,
2013-05-22 20:15:00,69.5,65.8,29.88,ESE,121,0.0,1.0,88,0.00,CLR,,0.06,WeatherDisplay:10.37,2013-05-23 00:15:00,
2013-05-22 20:20:00,69.6,65.9,29.89,SE,134,0.0,1.0,88,0.00,CLR,,0.06,WeatherDisplay:10.37,2013-05-23 00:20:00,
2013-05-22 20:25:00,69.4,66.0,29.89,SE,146,0.0,0.0,89,0.00,CLR,,0.06,WeatherDisplay:10.37,2013-05-23 00:25:00,
2013-05-22 20:30:00,69.0,66.2,29.89,SE,129,0.0,0.0,91,0.00,CLR,,0.06,WeatherDisplay:10.37,2013-05-23 00:30:00,
2013-05-22 20:35:00,68.5,66.0,29.89,ESE,102,0.0,2.0,92,0.00,CLR,,0.06,WeatherDisplay:10.37,2013-05-23 00:35:00,
2013-05-22 20:40:00,67.7,65.3,29.89,East,87,0.0,1.0,92,0.00,CLR,,0.06,WeatherDisplay:10.37,2013-05-23 00:40:00,
2013-05-22 20:45:00,66.9,64.1,29.89,East,82,0.0,1.0,91,0.00,CLR,,0.06,WeatherDisplay:10.37,2013-05-23 00:45:00,
2013-05-22 20:50:00,66.4,64.3,29.90,NNE,28,0.0,1.0,93,0.00,CLR,,0.06,WeatherDisplay:10.37,2013-05-23 00:50:00,
2013-05-22 20:55:00,66.2,63.8,29.90,North,360,0.0,0.0,92,0.00,CLR,,0.06,WeatherDisplay:10.37,2013-05-23 00:55:00,
2013-05-22 21:05:00,66.2,64.1,29.91,North,360,0.0,0.0,93,0.00,CLR,,0.06,WeatherDisplay:10.37,2013-05-23 01:05:00,
2013-05-22 21:10:00,66.0,63.6,29.91,North,360,0.0,1.0,92,0.00,CLR,,0.06,WeatherDisplay:10.37,2013-05-23 01:10:00,
2013-05-22 21:15:00,65.8,63.4,29.90,North,360,0.0,1.0,92,0.00,CLR,,0.06,WeatherDisplay:10.37,2013-05-23 01:15:00,
2013-05-22 21:20:00,65.6,63.5,29.91,North,360,0.0,0.0,93,0.00,CLR,,0.06,WeatherDisplay:10.37,2013-05-23 01:20:00,
2013-05-22 21:25:00,65.3,63.5,29.91,NNE,14,0.0,1.0,94,0.00,CLR,,0.06,WeatherDisplay:10.37,2013-05-23 01:25:00,
2013-05-22 21:35:00,64.9,63.4,29.91,NE,36,0.0,1.0,95,0.00,CLR,,0.06,WeatherDisplay:10.37,2013-05-23 01:35:00,
2013-05-22 21:40:00,64.8,63.6,29.91,NE,51,0.0,2.0,96,0.00,CLR,,0.06,WeatherDisplay:10.37,2013-05-23 01:40:00,
2013-05-22 21:45:00,64.8,63.6,29.90,ENE,57,1.0,1.0,96,0.00,CLR,,0.06,WeatherDisplay:10.37,2013-05-23 01:45:00,
2013-05-22 21:50:00,64.7,63.2,29.91,ENE,69,0.0,1.0,95,0.00,CLR,,0.06,WeatherDisplay:10.37,2013-05-23 01:50:00,
2013-05-22 21:55:00,64.7,63.2,29.91,East,82,1.0,1.0,95,0.00,CLR,,0.06,WeatherDisplay:10.37,2013-05-23 01:55:00,
2013-05-22 22:00:00,64.6,63.1,29.91,ENE,64,1.0,5.0,95,0.00,CLR,,0.06,WeatherDisplay:10.37,2013-05-23 02:00:00,
2013-05-22 22:05:00,64.6,63.5,29.93,NNE,25,1.0,3.0,96,0.00,CLR,,0.06,WeatherDisplay:10.37,2013-05-23 02:05:00,
2013-05-22 22:10:00,64.7,63.5,29.95,NW,325,0.0,2.0,96,0.00,CLR,,0.06,WeatherDisplay:10.37,2013-05-23 02:10:00,
2013-05-22 22:15:00,64.6,63.4,29.95,West,281,1.0,4.0,96,0.00,CLR,,0.06,WeatherDisplay:10.37,2013-05-23 02:15:00,
2013-05-22 22:25:00,63.5,61.7,29.95,NNW,338,0.0,3.0,94,0.15,RA,,0.28,WeatherDisplay:10.37,2013-05-23 02:25:00,
2013-05-22 22:30:00,62.4,60.3,29.95,NNW,344,1.0,5.0,93,0.02,RA,,0.33,WeatherDisplay:10.37,2013-05-23 02:30:00,
2013-05-22 22:35:00,62.0,60.0,29.95,ESE,104,1.0,6.0,93,0.01,RA,,0.34,WeatherDisplay:10.37,2013-05-23 02:35:00,
2013-05-22 22:40:00,61.8,60.3,29.95,East,101,1.0,3.0,95,0.04,RA,,0.38,WeatherDisplay:10.37,2013-05-23 02:40:00,
2013-05-22 22:45:00,61.5,60.1,29.97,ESE,114,1.0,2.0,95,0.00,RA,,0.38,WeatherDisplay:10.37,2013-05-23 02:45:00,
2013-05-22 22:50:00,61.3,60.2,29.96,ESE,123,1.0,4.0,96,0.00,,,0.38,WeatherDisplay:10.37,2013-05-23 02:50:00,
2013-05-22 22:55:00,61.2,60.1,29.95,ENE,60,0.0,2.0,96,0.00,CLR,,0.38,WeatherDisplay:10.37,2013-05-23 02:55:00,
2013-05-22 23:00:00,61.0,59.9,29.95,ESE,117,0.0,1.0,96,0.00,CLR,,0.38,WeatherDisplay:10.37,2013-05-23 03:00:00,
2013-05-22 23:05:00,60.9,59.8,29.94,SE,139,0.0,1.0,96,0.00,CLR,,0.38,WeatherDisplay:10.37,2013-05-23 03:05:00,
2013-05-22 23:10:00,60.8,59.9,29.94,SSW,198,0.0,0.0,97,0.00,CLR,,0.38,WeatherDisplay:10.37,2013-05-23 03:10:00,
2013-05-22 23:15:00,60.7,59.6,29.93,SW,221,0.0,1.0,96,0.00,CLR,,0.38,WeatherDisplay:10.37,2013-05-23 03:15:00,
2013-05-22 23:20:00,60.7,59.8,29.93,WSW,257,0.0,0.0,97,0.00,CLR,,0.38,WeatherDisplay:10.37,2013-05-23 03:20:00,
2013-05-22 23:25:00,60.8,59.9,29.93,WSW,257,0.0,0.0,97,0.00,CLR,,0.38,WeatherDisplay:10.37,2013-05-23 03:25:00,
2013-05-22 23:30:00,60.8,59.9,29.93,WSW,257,0.0,0.0,97,0.00,CLR,,0.38,WeatherDisplay:10.37,2013-05-23 03:30:00,
2013-05-22 23:35:00,61.3,60.8,29.93,WSW,249,0.0,1.0,98,0.00,CLR,,0.38,WeatherDisplay:10.37,2013-05-23 03:35:00,
2013-05-22 23:40:00,61.9,61.3,29.93,SW,233,0.0,1.0,98,0.00,CLR,,0.38,WeatherDisplay:10.37,2013-05-23 03:40:00,
2013-05-22 23:45:00,62.0,61.4,29.93,ESE,122,0.0,2.0,98,0.00,CLR,,0.38,WeatherDisplay:10.37,2013-05-23 03:45:00,
2013-05-22 23:50:00,62.1,61.5,29.93,ENE,73,0.0,2.0,98,0.00,CLR,,0.38,WeatherDisplay:10.37,2013-05-23 03:50:00,
2013-05-22 23:55:00,61.7,60.8,29.94,ESE,106,1.0,6.0,97,0.00,CLR,,0.38,WeatherDisplay:10.37,2013-05-23 03:55:00,